Airglades Airport FAWN current weather conditions

sailwx.info

Wind from 344 at 5 knots

Air temperature 17.2° C
Dewpoint 16.5° C

Last reported at 2020-Jan-25 13:00 UTC.
Time now 2020-Jan-25 13:47 UTC

Location: N 26°44' W 081°03'.
View on Google Maps.

See reports from other nearby stations

  
Tides and Currents Weather Stations Pressure Air Temp Water Temp Dewpoint Dewpoint Depression Visibility Wind Speed Wind Dir Waves Ship Positions
date/time (UTC)wind fromknots sea level pressurealtimeterstation pressurevisibilityair tempwater tempwave heightnotes
2020-Jan-25 13:00 344 5 17.2
2020-Jan-25 12:45 339 4 17.2
2020-Jan-25 12:30 321 3 16.9
2020-Jan-25 12:15 307 3 16.6
2020-Jan-25 12:00 309 4 16.3
2020-Jan-25 11:45 289 3 16.5
2020-Jan-25 11:30 280 4 15.9
2020-Jan-25 11:15 276 4 14.7
2020-Jan-25 11:00 266 3 14.5
2020-Jan-25 10:45 258 3 14.5
2020-Jan-25 10:30 231 2 14.6
2020-Jan-25 10:15 222 3 14.8
2020-Jan-25 10:00 193 4 15.0
2020-Jan-25 09:45 183 3 15.1
2020-Jan-25 09:30 177 1 15.0
2020-Jan-25 09:15 171 2 15.5
2020-Jan-25 09:00 169 3 15.5
2020-Jan-25 08:45 173 3 15.7
2020-Jan-25 08:30 185 3 15.8
2020-Jan-25 08:15 199 2 15.7
2020-Jan-25 08:00 200 1 16.3
2020-Jan-25 07:45 211 1 16.5
2020-Jan-25 07:30 217 0 16.7
2020-Jan-25 07:15 150 0 16.9
2020-Jan-25 07:00 130 1 17.1
2020-Jan-25 06:45 141 1 17.1
2020-Jan-25 06:30 162 3 17.2
2020-Jan-25 06:15 214 2 17.3
2020-Jan-25 06:00 234 5 17.5
2020-Jan-25 05:45 234 3 17.6
2020-Jan-25 05:30 195 3 17.7
2020-Jan-25 05:15 198 3 17.7
2020-Jan-25 05:00 189 2 18.0
2020-Jan-25 04:45 187 3 18.2
2020-Jan-25 04:30 201 4 18.4
2020-Jan-25 04:15 211 4 18.8
2020-Jan-25 04:00 215 3 19.2
2020-Jan-25 03:45 210 3 19.5
2020-Jan-25 03:30 202 4 19.7
2020-Jan-25 03:15 208 2 19.9
2020-Jan-25 03:00 294 3 20.1
2020-Jan-25 02:45 292 4 20.2
2020-Jan-25 02:30 268 6 20.4
2020-Jan-25 02:15 255 8 20.6
2020-Jan-25 02:00 234 6 20.6
2020-Jan-25 01:45 204 4 20.8
2020-Jan-25 01:30 217 4 20.4
2020-Jan-25 01:15 173 5 20.0
2020-Jan-25 01:00 085 2 20.0
2020-Jan-25 00:45 089 3 20.3
2020-Jan-25 00:30 108 5 20.3
2020-Jan-25 00:15 100 5 20.0
2020-Jan-25 00:00 090 4 20.3
2020-Jan-24 23:45 084 4 20.6
2020-Jan-24 23:30 076 4 20.6
2020-Jan-24 23:15 081 4 21.3
2020-Jan-24 23:00 077 5 21.9
2020-Jan-24 22:45 072 6 22.2
2020-Jan-24 22:30 069 7 23.0
2020-Jan-24 22:15 081 7 23.9
2020-Jan-24 22:00 086 7 24.2
2020-Jan-24 21:45 087 6 24.4
2020-Jan-24 21:30 087 6 24.4
2020-Jan-24 21:15 080 7 24.3
2020-Jan-24 21:00 083 7 24.4
2020-Jan-24 20:45 072 6 24.2
2020-Jan-24 20:30 083 6 24.1
2020-Jan-24 19:30 108 3 24.7
2020-Jan-24 19:15 129 4 25.3
2020-Jan-24 19:00 166 5 24.9
2020-Jan-24 18:45 188 7 25.0
2020-Jan-24 18:30 146 6 24.6
2020-Jan-24 18:15 161 4 24.0
2020-Jan-24 18:00 137 4 23.9
2020-Jan-24 17:45 094 3 23.7
2020-Jan-24 17:30 128 4 23.2
2020-Jan-24 17:15 146 4 22.9
2020-Jan-24 17:00 129 3 22.7
2020-Jan-24 16:45 131 3 22.2
2020-Jan-24 16:30 114 5 21.9
2020-Jan-24 16:15 095 5 21.5
2020-Jan-24 16:00 087 6 21.3
2020-Jan-24 15:45 106 4 21.2
2020-Jan-24 15:30 112 4 20.9
2020-Jan-24 15:15 108 5 20.6
2020-Jan-24 15:00 110 5 20.3
2020-Jan-24 14:45 101 4 19.9
2020-Jan-24 14:30 098 5 19.5
2020-Jan-24 14:15 091 3 19.2
2020-Jan-24 14:00 078 2 18.7
2020-Jan-24 13:45 068 1 18.2
2020-Jan-24 13:30 081 1 17.9
2020-Jan-24 13:15 073 1 17.8
2020-Jan-24 13:00 070 1 17.6
2020-Jan-24 12:45 048 2 17.4
2020-Jan-24 12:15 063 2 17.2
2020-Jan-24 12:00 025 1 17.1
2020-Jan-24 11:45 016 1 17.1
2020-Jan-24 11:30 056 1 17.1
2020-Jan-24 11:15 085 2 17.3
2020-Jan-24 11:00 051 3 17.3
2020-Jan-24 10:45 046 4 17.0
2020-Jan-24 10:30 063 2 17.0
2020-Jan-24 10:15 080 3 17.2
2020-Jan-24 10:00 081 3 17.3
2020-Jan-24 09:45 092 3 17.3
2020-Jan-24 09:30 090 2 17.3
2020-Jan-24 09:15 082 2 17.2
2020-Jan-24 09:00 080 2 17.3
2020-Jan-24 08:45 104 3 17.4
2020-Jan-24 08:30 107 2 17.5
2020-Jan-24 08:15 091 2 17.6
2020-Jan-24 08:00 108 3 17.8
2020-Jan-24 07:45 076 2 17.9
2020-Jan-24 07:30 050 2 17.9
2020-Jan-24 07:15 073 3 18.1
2020-Jan-24 07:00 074 4 18.3
2020-Jan-24 06:45 070 6 18.3
2020-Jan-24 06:30 060 5 18.4
2020-Jan-24 06:15 066 4 18.4
2020-Jan-24 06:00 067 3 18.4
2020-Jan-24 05:45 071 4 18.5
2020-Jan-24 05:30 090 5 18.6
2020-Jan-24 05:15 126 6 18.6
2020-Jan-24 05:00 135 6 18.4
2020-Jan-24 04:45 116 5 18.3
2020-Jan-24 04:30 103 4 18.0
2020-Jan-24 04:15 090 3 17.9
2020-Jan-24 04:00 085 2 17.9
2020-Jan-24 03:45 080 3 17.9
2020-Jan-24 03:30 076 3 18.1
2020-Jan-24 03:15 076 3 18.0
2020-Jan-24 03:00 089 3 18.3
2020-Jan-24 02:45 094 4 18.1
2020-Jan-24 02:30 086 4 18.2
2020-Jan-24 02:15 078 4 18.3
2020-Jan-24 02:00 087 5 18.4
2020-Jan-24 01:45 090 5 18.7
2020-Jan-24 01:30 088 6 18.8
2020-Jan-24 01:15 083 6 18.9
2020-Jan-24 01:00 081 7 19.1
2020-Jan-24 00:45 069 7 19.3
2020-Jan-24 00:30 061 7 19.4
2020-Jan-24 00:15 064 6 19.1
2020-Jan-24 00:00 051 5 19.2
2020-Jan-23 23:45 054 6 19.5
2020-Jan-23 23:30 062 6 19.8
2020-Jan-23 23:15 070 7 20.7
2020-Jan-23 23:00 063 5 21.1
2020-Jan-23 22:45 058 4 21.9
2020-Jan-23 22:30 055 5 22.5
2020-Jan-23 22:15 069 7 22.9
2020-Jan-23 22:00 052 7 23.1
2020-Jan-23 21:45 051 8 23.2
2020-Jan-23 21:30 053 8 23.3
2020-Jan-23 21:15 062 8 23.1
2020-Jan-23 21:00 060 9 23.2
2020-Jan-23 20:45 062 9 22.7
2020-Jan-23 20:30 061 9 23.6
2020-Jan-23 20:15 062 5 23.8
2020-Jan-23 20:00 056 5 23.6
2020-Jan-23 19:45 053 6 23.6
2020-Jan-23 19:30 077 7 23.4
2020-Jan-23 19:15 047 6 23.6
2020-Jan-23 19:00 039 6 23.5
2020-Jan-23 18:45 052 7 23.4
2020-Jan-23 18:30 045 7 23.5
2020-Jan-23 18:15 048 8 23.0
2020-Jan-23 18:00 047 9 22.6
2020-Jan-23 17:45 068 9 22.6
2020-Jan-23 17:30 056 7 22.6
2020-Jan-23 17:15 037 7 21.8
2020-Jan-23 17:00 034 8 21.4
2020-Jan-23 16:30 004 6 19.9
2020-Jan-23 16:15 002 6 19.1
2020-Jan-23 16:00 330 5 17.7
2020-Jan-23 15:45 348 6 16.6
2020-Jan-23 15:30 353 6 15.9
2020-Jan-23 15:15 336 6 15.3
2020-Jan-23 15:00 352 6 14.5
2020-Jan-23 14:45 347 7 14.1
2020-Jan-23 14:30 324 5 13.8
2020-Jan-23 14:15 330 4 13.3
2020-Jan-23 14:00 335 2 12.8
2020-Jan-23 13:45 330 2 12.8
2020-Jan-23 13:30 013 1 12.6
2020-Jan-23 13:15 010 3 12.4
2020-Jan-23 13:00 007 5 12.2